Wind_Speed
16 16 19 21 22 19 15 13 12 11 11 11 12 12 10 8 9 7 5 6 7 6 5 2 4 6 5 6 6 6 5 3 2 4 5 4 4 5 6 6 5 5 4
12 16 19 18 23 22 19 16 14 12 11 12 13 13 14 12 12 10 9 9 11 9 6 6 9 8 9 9 8 5 4 2 2 3 4 4 4 5 5 4 3 3 4
12 12 14 13 18 22 20 18 16 15 16 16 15 14 16 15 15 14 13 14 10 11 10 10 10 10 14 11 7 5 4 3 1 1 3 5 5 4 3 2 2 2 3
11 11 12 15 17 21 21 19 18 19 19 16 17 17 16 15 15 14 14 13 9 4 8 10 11 12 14 10 9 6 3 1 1 2 4 5 5 3 1 1 2 4 5
13 11 10 13 18 20 20 19 19 19 20 20 21 26 22 20 17 14 13 10 7 5 5 8 11 10 10 12 8 6 4 3 4 5 5 5 4 2 0 2 3 5 6
14 14 12 13 15 15 18 19 19 21 17 18 20 23 28 24 19 16 13 11 8 7 10 15 14 11 14 10 8 7 6 5 6 7 6 4 2 1 2 4 5 7 7
17 16 15 15 13 11 9 14 22 25 17 19 21 12 18 17 15 13 13 12 9 10 12 16 15 15 12 11 10 8 7 8 7 6 4 1 1 2 4 4 5 5 5
20 19 17 16 13 12 7 10 8 16 17 19 13 8 10 11 8 14 13 14 13 13 13 16 17 14 13 11 11 11 10 8 6 4 3 2 2 3 4 5 6 6 7
21 21 19 17 17 15 9 14 14 14 16 14 12 10 10 11 11 12 15 18 15 12 12 11 9 14 15 13 12 10 8 6 5 4 4 4 3 4 4 6 6 6 7
22 22 22 21 20 18 15 16 16 16 15 12 9 8 9 9 8 10 10 9 13 9 8 10 10 11 8 11 9 5 5 4 4 4 6 5 6 6 6 6 6 6 6
21 21 22 20 19 17 16 18 17 16 16 17 15 11 9 10 8 9 11 12 12 14 13 10 12 14 14 11 8 9 9 7 7 8 7 7 8 7 7 6 5 4 5
20 20 21 20 19 17 19 20 18 15 16 15 14 13 13 9 9 11 11 14 16 13 15 15 12 11 10 8 6 7 7 8 9 9 8 8 8 8 7 5 4 5 3
21 20 19 19 20 20 19 19 17 16 14 12 14 15 12 14 11 12 11 11 9 14 15 13 12 13 10 11 10 9 9 11 10 9 8 8 9 8 6 5 5 2 1
22 22 21 19 20 21 20 19 18 16 14 13 14 14 14 12 13 12 7 14 12 14 13 10 9 8 8 9 9 10 12 11 11 9 8 9 8 7 7 7 6 4 5
23 22 22 21 21 21 20 19 19 17 16 15 15 16 15 14 12 12 7 13 9 8 10 8 6 6 7 7 8 10 11 11 10 10 9 9 8 8 9 9 8 7 9
24 23 23 21 21 21 20 19 17 17 16 15 15 15 15 14 12 11 10 11 9 11 7 9 8 10 7 7 7 9 10 9 9 9 9 9 9 10 12 11 12 11 13
25 23 22 21 21 20 19 19 18 17 16 15 14 14 14 13 12 10 9 9 9 11 8 7 6 6 7 8 7 9 8 7 7 8 10 11 11 13 14 15 16 16 18
25 23 20 19 19 19 19 18 18 18 17 16 15 14 13 12 11 9 8 7 7 7 7 7 7 7 8 8 8 8 8 8 9 11 12 13 12 14 16 17 19 21 24
27 23 21 19 19 18 19 19 18 17 16 15 14 13 12 11 10 9 9 9 9 9 9 9 9 8 8 9 10 9 10 11 12 14 15 15 16 17 19 20 22 25 28
26 25 23 21 19 18 18 17 17 17 16 16 15 15 14 13 12 12 11 11 11 11 11 11 11 11 11 11 11 11 12 14 15 16 17 18 19 20 22 23 26 28 31
24 22 21 19 18 18 17 17 17 18 17 16 15 15 15 15 15 15 15 15 14 13 13 13 14 14 14 14 14 14 14 16 17 18 20 21 22 23 26 27 29 32 35
23 22 20 19 19 19 20 20 20 18 16 16 16 16 16 16 16 15 17 16 17 18 18 18 17 17 16 16 17 17 17 18 20 21 23 23 24 26 28 31 33 35 37
25 22 20 20 20 20 22 22 22 19 19 20 20 19 17 18 18 18 19 18 18 18 18 18 19 19 20 20 19 19 20 22 23 25 26 26 27 29 31 33 35 36 38
24 24 22 21 21 22 21 21 21 21 21 19 17 17 15 15 17 18 20 20 21 21 21 21 21 20 20 21 22 24 25 26 27 28 28 29 29 31 33 35 36 37 39
28 26 24 22 21 21 21 21 20 19 21 19 18 17 16 14 12 13 14 16 18 19 20 21 22 22 23 24 25 26 27 27 28 29 31 32 33 34 36 38 39 39 41
31 28 25 23 20 19 20 22 21 22 22 20 19 19 17 16 15 13 12 12 13 15 17 20 22 23 23 24 25 26 27 27 29 30 33 35 36 38 39 40 41 42 43
Wind_Direction
206 210 214 218 218 217 217 217 225 229 223 211 209 200 207 198 199 219 231 235 248 232 223 218 213 233 207 181 181 166 155 144 85 50 48 46 63 62 57 53 37 25 11
213 208 210 219 217 213 217 218 224 227 234 236 229 218 223 224 218 215 238 243 256 254 246 216 205 199 184 186 180 165 136 110 63 34 49 67 85 91 84 66 50 29 8
196 193 212 211 207 207 215 223 228 232 236 244 242 234 227 224 227 222 225 229 235 245 240 226 226 218 180 174 183 193 185 168 126 84 106 116 120 110 100 70 25 353 340
183 182 204 207 207 210 217 220 227 231 237 245 241 233 228 227 228 228 230 238 251 174 231 231 228 224 200 191 190 193 185 161 150 129 145 144 144 132 102 19 350 352 342
188 192 194 201 208 208 214 221 229 228 233 239 253 242 219 218 217 218 228 240 265 274 200 202 209 210 220 193 189 194 185 192 183 171 174 165 162 180 193 357 1 354 344
198 195 194 202 202 208 218 223 227 221 234 232 255 212 220 197 205 211 223 235 201 196 199 202 199 179 181 190 190 190 190 193 185 182 190 182 181 313 334 357 354 355 342
201 195 197 207 210 213 224 245 228 210 218 243 213 165 166 179 185 195 207 216 196 173 164 161 172 168 177 187 187 192 192 191 194 199 205 234 348 349 335 329 331 330 329
202 197 197 203 196 175 166 153 185 158 179 205 218 203 182 170 169 183 179 177 156 158 168 184 185 177 195 176 181 186 185 188 195 205 225 245 284 291 299 312 318 332 327
193 191 182 181 177 178 160 153 163 172 178 180 202 196 196 196 200 180 179 154 144 134 153 169 181 196 161 170 178 182 184 193 211 231 241 251 268 281 291 293 303 312 322
174 175 169 175 174 179 181 175 174 165 155 153 151 143 150 173 190 186 194 182 168 155 169 174 172 161 170 167 187 191 205 220 237 250 252 254 272 269 275 284 295 316 330
166 168 169 172 173 175 177 169 166 157 145 137 141 144 148 149 157 183 188 174 180 189 177 174 167 170 177 185 190 204 227 242 251 250 259 262 262 266 273 286 303 314 318
165 169 170 171 173 173 168 166 164 155 151 153 156 160 159 147 147 152 173 193 196 179 183 183 186 186 195 210 219 230 247 257 257 263 266 266 265 262 272 284 293 304 345
162 163 166 169 166 163 166 163 155 141 143 155 162 160 156 144 131 143 148 169 168 187 171 190 187 208 211 229 245 254 263 265 268 266 264 260 259 267 272 264 276 272 239
157 155 155 157 155 154 151 148 145 144 142 136 145 147 145 154 153 159 146 173 161 172 174 188 202 209 221 240 256 262 268 274 272 268 265 260 261 266 254 268 261 238 275
156 151 150 152 150 148 147 146 142 142 143 143 143 143 152 152 157 169 150 160 145 161 177 197 226 230 243 256 267 272 271 271 272 271 268 265 266 257 262 271 250 262 288
158 153 151 153 150 152 154 150 147 147 149 148 147 152 160 165 168 169 175 178 171 187 204 198 205 237 260 275 284 287 284 284 282 275 272 273 272 268 278 274 257 277 294
164 158 154 154 154 154 154 151 149 148 149 153 156 161 165 170 173 174 178 185 190 199 215 209 215 233 242 257 275 280 292 295 291 283 281 282 289 283 284 276 268 282 293
171 168 163 159 157 160 159 156 156 154 152 154 156 159 163 165 167 173 181 192 205 214 225 231 236 248 266 279 287 293 294 295 293 295 295 298 299 294 294 290 285 286 292
179 174 173 174 173 173 168 169 167 165 165 168 172 175 183 188 190 201 210 219 228 234 239 245 251 255 263 276 286 295 296 296 299 302 298 300 299 295 294 297 298 297 298
186 181 182 183 184 189 185 183 183 180 183 185 189 194 202 208 213 222 228 233 239 244 246 248 252 256 264 269 275 283 290 296 302 304 300 297 298 298 298 299 298 297 299
192 189 190 191 193 198 199 198 198 198 200 204 209 214 219 225 227 231 236 239 243 245 249 254 259 262 265 270 276 281 286 291 295 297 298 297 297 297 299 299 299 298 300
189 191 192 199 200 204 209 210 211 212 211 214 220 227 231 238 242 241 246 248 251 253 254 254 256 260 266 273 278 283 287 289 292 295 295 296 297 298 299 299 299 300 300
187 193 194 197 201 205 211 214 212 214 219 221 223 228 234 240 246 247 251 253 254 255 258 262 267 270 272 274 278 280 283 286 289 291 293 295 297 298 299 300 300 301 302
197 197 199 201 202 205 208 210 211 211 216 221 224 230 232 234 245 249 250 252 255 258 261 264 267 270 272 274 276 278 281 283 287 289 291 292 293 294 294 294 296 298 299
204 203 204 205 208 210 212 213 212 209 211 214 218 225 235 243 249 259 261 262 261 260 262 264 266 269 271 273 276 279 282 284 285 287 288 289 291 291 292 292 293 294 296
208 209 208 213 217 223 221 220 217 213 214 215 219 226 234 247 255 262 274 278 276 270 266 267 269 270 272 275 277 280 282 284 286 287 289 292 294 294 296 296 296 297 297
Height
5814 5817 5818 5821 5823 5826 5827 5829 5831 5834 5836 5838 5839 5840 5842 5843 5845 5847 5848 5849 5851 5852 5852 5853 5854 5855 5857 5858 5859 5860 5860 5861 5861 5862 5862 5862 5861 5861 5860 5860 5859 5858 5858
5813 5815 5818 5819 5821 5824 5826 5829 5831 5834 5835 5837 5839 5840 5842 5843 5846 5846 5847 5848 5850 5851 5852 5853 5855 5856 5857 5857 5858 5859 5860 5861 5861 5861 5861 5860 5861 5861 5861 5860 5859 5859 5858
5813 5814 5817 5817 5819 5823 5825 5828 5830 5833 5835 5834 5837 5839 5841 5842 5844 5845 5847 5847 5848 5850 5852 5853 5854 5856 5857 5858 5859 5860 5861 5862 5863 5862 5862 5861 5862 5862 5861 5861 5860 5861 5860
5811 5813 5815 5816 5818 5821 5824 5826 5828 5831 5833 5834 5835 5836 5839 5841 5842 5844 5846 5847 5847 5849 5850 5852 5853 5854 5857 5858 5859 5860 5860 5861 5861 5862 5862 5862 5862 5861 5861 5861 5861 5861 5860
5810 5813 5814 5815 5817 5819 5823 5825 5827 5829 5831 5833 5834 5832 5835 5838 5841 5843 5846 5847 5848 5848 5851 5852 5852 5854 5856 5857 5858 5860 5861 5862 5862 5862 5862 5862 5862 5862 5862 5862 5862 5861 5860
5809 5812 5813 5815 5817 5819 5821 5823 5825 5828 5830 5832 5831 5832 5831 5834 5839 5843 5845 5846 5849 5850 5850 5851 5852 5854 5856 5859 5859 5861 5861 5862 5863 5863 5863 5862 5862 5862 5862 5861 5860 5859 5859
5808 5811 5813 5814 5817 5818 5820 5820 5822 5824 5828 5830 5832 5831 5830 5835 5839 5842 5845 5847 5848 5849 5849 5852 5852 5854 5857 5858 5859 5860 5861 5862 5862 5862 5862 5862 5861 5860 5861 5861 5861 5860 5860
5807 5809 5812 5813 5816 5818 5820 5820 5822 5822 5826 5828 5829 5830 5833 5836 5839 5841 5844 5848 5849 5850 5850 5852 5852 5855 5857 5858 5859 5860 5861 5862 5862 5862 5862 5862 5861 5862 5862 5861 5861 5860 5860
5805 5808 5810 5813 5815 5818 5819 5821 5824 5825 5827 5828 5830 5832 5834 5837 5840 5843 5846 5848 5850 5852 5852 5853 5853 5855 5856 5858 5860 5861 5862 5862 5862 5862 5862 5862 5861 5862 5861 5861 5861 5861 5860
5805 5808 5809 5812 5815 5818 5821 5824 5825 5826 5827 5829 5831 5833 5835 5837 5840 5844 5846 5849 5850 5852 5853 5853 5854 5856 5857 5859 5861 5862 5862 5862 5863 5862 5863 5862 5862 5862 5861 5861 5861 5860 5859
5806 5808 5810 5813 5816 5819 5822 5824 5826 5827 5828 5830 5832 5835 5837 5839 5842 5844 5846 5849 5852 5853 5855 5855 5857 5858 5860 5861 5862 5863 5864 5863 5862 5863 5862 5861 5861 5861 5861 5861 5860 5859 5859
5807 5810 5812 5814 5817 5820 5822 5825 5827 5829 5830 5832 5834 5836 5838 5840 5843 5845 5848 5850 5853 5855 5856 5857 5858 5860 5861 5862 5862 5862 5862 5863 5862 5862 5861 5861 5861 5861 5861 5860 5859 5859 5857
5808 5811 5813 5816 5818 5820 5823 5826 5828 5830 5832 5833 5835 5838 5839 5843 5845 5846 5849 5851 5851 5854 5856 5858 5859 5861 5862 5863 5863 5862 5862 5862 5861 5861 5860 5860 5861 5860 5860 5860 5859 5858 5857
5809 5811 5814 5817 5819 5821 5824 5827 5830 5832 5833 5835 5837 5839 5841 5844 5846 5848 5850 5851 5852 5855 5856 5859 5859 5860 5861 5862 5862 5862 5862 5861 5860 5860 5860 5860 5860 5860 5859 5859 5858 5857 5856
5810 5812 5814 5818 5821 5823 5826 5828 5830 5833 5835 5837 5839 5841 5844 5846 5848 5850 5851 5853 5854 5856 5858 5859 5860 5860 5860 5861 5861 5861 5860 5860 5859 5859 5859 5859 5859 5858 5858 5858 5856 5856 5855
5811 5813 5815 5820 5822 5825 5827 5829 5832 5834 5837 5838 5840 5843 5845 5847 5849 5850 5852 5854 5855 5857 5858 5859 5860 5861 5860 5861 5861 5860 5859 5858 5858 5858 5858 5858 5858 5857 5857 5856 5855 5854 5853
5811 5814 5817 5820 5823 5826 5829 5830 5832 5835 5838 5840 5842 5845 5846 5848 5849 5851 5852 5854 5856 5857 5858 5859 5860 5860 5860 5860 5860 5859 5858 5858 5858 5857 5857 5857 5856 5856 5855 5854 5853 5852 5851
5811 5815 5818 5822 5824 5827 5830 5832 5834 5836 5839 5841 5844 5846 5848 5849 5850 5851 5853 5855 5856 5857 5858 5859 5859 5859 5858 5858 5858 5858 5857 5857 5857 5856 5855 5855 5854 5853 5853 5852 5851 5849 5848
5811 5814 5818 5822 5825 5828 5831 5833 5835 5837 5839 5842 5844 5846 5848 5850 5851 5852 5853 5854 5855 5856 5857 5857 5857 5858 5858 5857 5857 5857 5856 5856 5855 5854 5853 5853 5851 5850 5850 5849 5848 5846 5843
5811 5813 5817 5821 5825 5828 5831 5833 5836 5837 5840 5841 5843 5845 5847 5848 5850 5851 5852 5853 5854 5855 5855 5856 5856 5856 5856 5856 5855 5855 5854 5854 5853 5852 5851 5850 5848 5847 5846 5845 5843 5841 5838
5810 5814 5817 5821 5824 5828 5831 5833 5835 5836 5838 5840 5842 5843 5845 5846 5847 5849 5849 5850 5851 5852 5852 5853 5853 5854 5854 5853 5853 5852 5852 5851 5850 5849 5848 5846 5845 5843 5842 5840 5838 5836 5833
5809 5812 5816 5819 5823 5826 5829 5831 5833 5835 5837 5839 5840 5841 5843 5843 5844 5846 5846 5847 5848 5849 5849 5849 5850 5850 5850 5850 5850 5849 5849 5848 5846 5845 5843 5842 5840 5838 5837 5835 5833 5831 5828
5806 5811 5814 5817 5820 5823 5825 5828 5831 5833 5835 5836 5837 5838 5840 5840 5841 5842 5842 5843 5844 5844 5845 5845 5845 5846 5846 5846 5845 5845 5844 5844 5843 5841 5839 5837 5835 5833 5832 5830 5827 5825 5822
5803 5807 5811 5814 5817 5819 5822 5825 5827 5829 5831 5833 5834 5835 5836 5837 5837 5838 5838 5839 5839 5840 5841 5841 5841 5841 5841 5841 5841 5840 5839 5838 5837 5835 5833 5831 5830 5828 5825 5823 5820 5818 5814
5799 5803 5807 5810 5814 5816 5818 5821 5823 5826 5827 5829 5831 5832 5833 5834 5835 5835 5835 5835 5835 5836 5836 5836 5836 5836 5836 5836 5836 5835 5834 5833 5831 5829 5827 5825 5823 5820 5818 5815 5813 5810 5807
5796 5801 5804 5808 5810 5813 5815 5817 5819 5821 5823 5825 5827 5829 5830 5830 5831 5832 5832 5832 5831 5831 5831 5831 5831 5831 5831 5830 5830 5829 5828 5827 5825 5823 5821 5819 5817 5814 5812 5809 5806 5803 5800